TimeCST,TemperatureF,Dew PointF,Humidity,Sea Level PressureIn,VisibilityMPH,Wind Direction,Wind SpeedMPH,Gust SpeedMPH,PrecipitationIn,Events,Conditions,WindDirDegrees,DateUTC
12:15 AM,39.2,23.0,52,30.25,10.0,NE,16.1,-,N/A,,Overcast,40,2013-01-24 06:15:00
12:35 AM,37.4,23.0,56,30.25,10.0,NE,15.0,-,N/A,,Overcast,40,2013-01-24 06:35:00
12:55 AM,37.4,23.0,56,30.27,10.0,NE,16.1,21.9,N/A,,Mostly Cloudy,40,2013-01-24 06:55:00
1:15 AM,35.6,21.2,56,30.27,10.0,NE,16.1,-,N/A,,Overcast,40,2013-01-24 07:15:00
1:35 AM,35.6,19.4,52,30.27,10.0,NE,17.3,21.9,N/A,,Overcast,40,2013-01-24 07:35:00
1:55 AM,33.8,19.4,56,30.27,10.0,NE,12.7,-,N/A,,Overcast,50,2013-01-24 07:55:00
2:15 AM,32.0,19.4,60,30.28,10.0,NE,13.8,-,N/A,,Overcast,50,2013-01-24 08:15:00
2:35 AM,32.0,19.4,60,30.27,10.0,NE,13.8,21.9,N/A,,Overcast,50,2013-01-24 08:35:00
2:55 AM,32.0,19.4,60,30.28,10.0,NE,16.1,-,N/A,,Overcast,50,2013-01-24 08:55:00
3:15 AM,32.0,19.4,60,30.29,10.0,NE,15.0,-,N/A,,Overcast,40,2013-01-24 09:15:00
3:35 AM,32.0,17.6,55,30.29,10.0,NE,15.0,20.7,N/A,,Overcast,40,2013-01-24 09:35:00
3:55 AM,32.0,17.6,55,30.29,10.0,NE,15.0,-,N/A,,Overcast,50,2013-01-24 09:55:00
4:15 AM,30.2,17.6,60,30.29,10.0,NE,17.3,20.7,N/A,,Overcast,40,2013-01-24 10:15:00
4:35 AM,30.2,17.6,60,30.28,10.0,NE,17.3,23.0,N/A,,Overcast,50,2013-01-24 10:35:00
4:55 AM,28.4,15.8,59,30.28,10.0,NE,13.8,21.9,N/A,,Overcast,50,2013-01-24 10:55:00
5:15 AM,28.4,15.8,59,30.27,10.0,NE,16.1,-,N/A,,Overcast,40,2013-01-24 11:15:00
5:35 AM,28.4,15.8,59,30.27,10.0,NE,15.0,20.7,N/A,,Overcast,50,2013-01-24 11:35:00
5:55 AM,28.4,15.8,59,30.28,10.0,NE,15.0,18.4,N/A,,Overcast,40,2013-01-24 11:55:00
6:15 AM,28.4,15.8,59,30.28,10.0,NE,16.1,-,N/A,,Overcast,50,2013-01-24 12:15:00
6:35 AM,28.4,14.0,55,30.27,10.0,ENE,16.1,-,N/A,,Overcast,60,2013-01-24 12:35:00
6:55 AM,28.4,14.0,55,30.28,10.0,NE,15.0,20.7,N/A,,Overcast,50,2013-01-24 12:55:00
7:15 AM,28.4,14.0,55,30.27,10.0,NE,17.3,25.3,N/A,,Overcast,50,2013-01-24 13:15:00
7:35 AM,30.2,14.0,51,30.27,10.0,NE,16.1,-,N/A,,Overcast,50,2013-01-24 13:35:00
7:55 AM,30.2,14.0,51,30.28,10.0,NE,15.0,20.7,N/A,,Overcast,50,2013-01-24 13:55:00
8:15 AM,30.2,12.2,47,30.29,10.0,NE,16.1,-,N/A,,Overcast,50,2013-01-24 14:15:00
8:35 AM,30.2,12.2,47,30.30,10.0,NE,15.0,-,N/A,,Overcast,40,2013-01-24 14:35:00
8:55 AM,30.2,12.2,47,30.31,10.0,NE,13.8,-,N/A,,Overcast,40,2013-01-24 14:55:00
9:15 AM,30.2,10.4,44,30.30,10.0,NE,17.3,-,N/A,,Overcast,50,2013-01-24 15:15:00
9:35 AM,32.0,10.4,41,30.28,10.0,ENE,17.3,21.9,N/A,,Overcast,70,2013-01-24 15:35:00
9:55 AM,32.0,10.4,41,30.28,10.0,ENE,19.6,24.2,N/A,,Overcast,70,2013-01-24 15:55:00
10:15 AM,32.0,10.4,41,30.29,10.0,NE,16.1,-,N/A,,Overcast,50,2013-01-24 16:15:00
10:35 AM,32.0,10.4,41,30.30,10.0,ENE,13.8,-,N/A,,Overcast,60,2013-01-24 16:35:00
10:55 AM,30.2,10.4,44,30.30,10.0,ENE,13.8,-,N/A,,Overcast,60,2013-01-24 16:55:00
11:15 AM,32.0,10.4,41,30.29,10.0,ENE,16.1,-,N/A,,Overcast,60,2013-01-24 17:15:00
11:35 AM,32.0,12.2,44,30.30,10.0,NE,11.5,-,N/A,,Overcast,50,2013-01-24 17:35:00
11:55 AM,30.2,15.8,55,30.31,10.0,ENE,9.2,-,N/A,,Overcast,60,2013-01-24 17:55:00
12:15 PM,30.2,15.8,55,30.30,10.0,NE,10.4,-,N/A,,Overcast,40,2013-01-24 18:15:00
12:35 PM,30.2,15.8,55,30.29,10.0,NE,11.5,-,N/A,,Overcast,50,2013-01-24 18:35:00
12:55 PM,30.2,15.8,55,30.25,10.0,ENE,15.0,-,N/A,,Overcast,60,2013-01-24 18:55:00
1:15 PM,28.4,17.6,64,30.25,10.0,NE,15.0,19.6,N/A,,Overcast,40,2013-01-24 19:15:00
1:35 PM,28.4,19.4,69,30.22,10.0,NE,12.7,20.7,N/A,,Overcast,50,2013-01-24 19:35:00
1:55 PM,28.4,19.4,69,30.22,10.0,ENE,10.4,-,N/A,,Overcast,60,2013-01-24 19:55:00
2:15 PM,28.4,19.4,69,30.22,10.0,ENE,9.2,-,N/A,,Overcast,60,2013-01-24 20:15:00
2:35 PM,28.4,19.4,69,30.21,10.0,NE,8.1,16.1,N/A,,Overcast,50,2013-01-24 20:35:00
2:55 PM,28.4,21.2,74,30.20,9.0,NE,10.4,-,N/A,,Overcast,50,2013-01-24 20:55:00
3:15 PM,28.4,21.2,74,30.19,7.0,ENE,10.4,-,N/A,,Overcast,60,2013-01-24 21:15:00
3:35 PM,28.4,21.2,74,30.18,9.0,ENE,8.1,-,N/A,,Overcast,70,2013-01-24 21:35:00
3:55 PM,28.4,21.2,74,30.19,8.0,NE,8.1,-,N/A,,Overcast,50,2013-01-24 21:55:00
4:15 PM,28.4,23.0,80,30.21,9.0,NNE,8.1,-,N/A,,Overcast,30,2013-01-24 22:15:00
4:35 PM,28.4,23.0,80,30.19,7.0,NE,8.1,-,N/A,,Overcast,50,2013-01-24 22:35:00
4:55 PM,26.6,23.0,86,30.16,4.0,ENE,8.1,-,N/A,,Overcast,60,2013-01-24 22:55:00
5:15 PM,26.6,23.0,86,30.11,3.0,East,10.4,-,N/A,,Overcast,90,2013-01-24 23:15:00
5:35 PM,26.6,24.8,93,30.12,6.0,East,6.9,-,N/A,,Overcast,80,2013-01-24 23:35:00
5:55 PM,26.6,23.0,86,30.18,9.0,North,4.6,-,N/A,,Overcast,350,2013-01-24 23:55:00
6:15 PM,26.6,23.0,86,30.17,8.0,NE,4.6,-,N/A,,Overcast,50,2013-01-25 00:15:00
6:35 PM,26.6,24.8,93,30.18,5.0,North,5.8,-,N/A,,Overcast,360,2013-01-25 00:35:00
6:55 PM,26.6,24.8,93,30.17,7.0,North,6.9,-,N/A,,Overcast,10,2013-01-25 00:55:00
7:15 PM,26.6,24.8,93,30.18,3.0,North,4.6,-,N/A,,Overcast,360,2013-01-25 01:15:00
7:35 PM,26.6,24.8,93,30.18,4.0,North,4.6,-,N/A,,Overcast,360,2013-01-25 01:35:00
7:55 PM,26.6,24.8,93,30.18,4.0,NNW,5.8,-,N/A,,Overcast,340,2013-01-25 01:55:00
8:15 PM,26.6,24.8,93,30.16,4.0,North,5.8,-,N/A,,Overcast,350,2013-01-25 02:15:00
8:35 PM,26.6,24.8,93,30.16,3.0,NNE,5.8,-,N/A,,Overcast,20,2013-01-25 02:35:00
8:55 PM,26.6,24.8,93,30.17,4.0,NNW,3.5,-,N/A,,Overcast,340,2013-01-25 02:55:00
9:15 PM,26.6,24.8,93,30.17,4.0,NNW,6.9,-,N/A,,Overcast,340,2013-01-25 03:15:00
9:35 PM,26.6,24.8,93,30.17,5.0,NNW,8.1,-,N/A,,Overcast,330,2013-01-25 03:35:00
9:55 PM,26.6,24.8,93,30.18,8.0,NNW,8.1,-,N/A,,Overcast,330,2013-01-25 03:55:00
10:15 PM,26.6,24.8,93,30.17,8.0,NNW,9.2,-,N/A,,Overcast,340,2013-01-25 04:15:00
10:35 PM,26.6,24.8,93,30.15,6.0,North,9.2,-,N/A,,Overcast,360,2013-01-25 04:35:00
10:55 PM,26.6,24.8,93,30.15,7.0,North,8.1,-,N/A,,Overcast,360,2013-01-25 04:55:00
11:15 PM,26.6,24.8,93,30.16,6.0,North,8.1,-,N/A,,Overcast,350,2013-01-25 05:15:00
11:35 PM,26.6,24.8,93,30.16,10.0,North,8.1,-,N/A,,Overcast,350,2013-01-25 05:35:00
11:55 PM,26.6,24.8,93,30.17,8.0,North,8.1,-,N/A,,Overcast,350,2013-01-25 05:55:00